Lexington, KY

10:38 AM EST on January 23, 2017 (GMT -0500)
Blue Grass

Weather History for KLEX - July, 2013

Change the Weather History Date:

Wednesday, July 31, 2013

  Actual Average Record
Temperature  
Mean Temperature 69 °F 76 °F  
Max Temperature 74 °F 86 °F 99 °F (1999)
Min Temperature 64 °F 66 °F 52 °F (1895)
Degree Days  
Heating Degree Days 0 0  
Month to date heating degree days 0 0  
Since 1 June heating degree days 0 11  
Since 1 July heating degree days 0 0  
Cooling Degree Days 4 11  
Month to date cooling degree days 301 347  
Year to date cooling degree days 723 696  
Since 1 June cooling degree days 570 589  
Growing Degree Days 18 (Base 50)    
Moisture  
Dew Point 65 °F    
Average Humidity 88    
Maximum Humidity 97    
Minimum Humidity 79    
Precipitation  
Precipitation 0.16 in 0.14 in 3.17 in (2004)
Month to date precipitation 9.10 4.65  
Year to date precipitation 38.50 28.42  
Snow  
Snow 0.00 in 0.00 in - ()
Month to date snowfall 0.0 0.0  
Since 1 June snowfall 0.0 0.0  
Since 1 July snowfall 0.0 0.0  
Snow Depth 0.00 in    
Sea Level Pressure  
Sea Level Pressure 30.07 in    
Wind  
Wind Speed 5 mph (South)    
Max Wind Speed 14 mph    
Max Gust Speed 18 mph    
Visibility 9 miles    
Events Rain    
T = Trace of Precipitation, MM = Missing Value Source: NWS Daily Summary

Daily Weather History Graph

Daily Weather History Graph

Search for Another Location

Airport or City:

Trip Planner

Search our weather history database for the weather conditions in past years. The results will help you decide how hot, cold, wet, or windy it might be!

Date:

Astronomy

Jul. 31, 2013 Rise Set
Actual Time 6:40 AM EDT 8:48 PM EDT
Civil Twilight 6:11 AM EDT 9:17 PM EDT
Nautical Twilight 5:35 AM EDT 9:53 PM EDT
Astronomical Twilight 4:56 AM EDT 10:32 PM EDT
Moon 1:35 AM EDT (7/31) 4:03 PM EDT (7/31)
Length of Visible Light 15h 06m
Length of Day
14h 07m
Waning Crescent, 32% of the Moon is Illuminated
Jul 31
Waning Crescent
Aug 6
New
Aug 14
First Quarter
Aug 20
Full
Aug 28
Last Quarter

Hourly Weather History & Observations

Time (EDT) Temp. Dew Point Humidity Pressure Visibility Wind Dir Wind Speed Gust Speed Precip Events Conditions
12:54 AM 69.1 °F 64.0 °F 84% 30.14 in 10.0 mi South 6.9 mph - 0.01 in Rain Light Rain
1:54 AM 64.9 °F 62.1 °F 90% 30.14 in 6.0 mi South 11.5 mph - 0.00 in Rain Light Rain
2:01 AM 64.9 °F 62.1 °F 90% 30.17 in 4.0 mi South 9.2 mph - 0.01 in Rain Light Rain
2:54 AM 64.0 °F 63.0 °F 96% 30.13 in 4.0 mi South 6.9 mph - 0.08 in Rain Rain
3:13 AM 64.0 °F 63.0 °F 96% 30.15 in 4.0 mi South 6.9 mph - 0.02 in Rain Light Rain
3:37 AM 64.0 °F 63.0 °F 96% 30.15 in 3.0 mi South 9.2 mph - 0.04 in Rain Light Rain
3:54 AM 64.0 °F 63.0 °F 96% 30.13 in 4.0 mi South 6.9 mph - 0.05 in Rain Light Rain
4:04 AM 64.0 °F 62.1 °F 93% 30.15 in 4.0 mi South 8.1 mph - 0.01 in Rain Light Rain
4:54 AM 64.0 °F 62.1 °F 93% 30.11 in 8.0 mi South 6.9 mph - 0.03 in Rain Light Rain
5:54 AM 64.9 °F 62.1 °F 90% 30.10 in 10.0 mi SSE 4.6 mph - 0.00 in   Overcast
6:20 AM 64.0 °F 62.1 °F 93% 30.12 in 10.0 mi SE 5.8 mph - N/A   Overcast
6:44 AM 64.9 °F 62.1 °F 90% 30.11 in 10.0 mi SSE 6.9 mph - N/A   Overcast
6:54 AM 64.9 °F 62.1 °F 90% 30.09 in 10.0 mi SSE 6.9 mph - N/A   Overcast
7:51 AM 64.4 °F 62.6 °F 94% 30.10 in 10.0 mi SE 6.9 mph - N/A   Overcast
7:54 AM 64.9 °F 63.0 °F 93% 30.08 in 10.0 mi SE 8.1 mph - N/A   Overcast
8:42 AM 68.0 °F 64.9 °F 90% 30.09 in 10.0 mi SSE 9.2 mph - N/A   Mostly Cloudy
8:54 AM 68.0 °F 64.9 °F 90% 30.07 in 10.0 mi South 9.2 mph - N/A   Mostly Cloudy
9:54 AM 69.1 °F 66.0 °F 90% 30.09 in 10.0 mi South 8.1 mph - N/A   Overcast
10:54 AM 70.0 °F 66.0 °F 87% 30.08 in 10.0 mi South 5.8 mph - N/A   Overcast
11:54 AM 72.0 °F 66.9 °F 84% 30.06 in 10.0 mi SSW 8.1 mph - N/A   Overcast
12:12 PM 72.0 °F 66.0 °F 81% 30.08 in 10.0 mi SSW 5.8 mph - N/A   Overcast
12:54 PM 73.0 °F 66.9 °F 81% 30.04 in 10.0 mi South 9.2 mph - N/A   Overcast
1:04 PM 71.1 °F 66.9 °F 87% 30.07 in 10.0 mi SSE 9.2 mph - N/A   Overcast
1:22 PM 71.1 °F 66.9 °F 87% 30.07 in 10.0 mi South 6.9 mph - N/A   Overcast
1:54 PM 73.0 °F 68.0 °F 84% 30.04 in 10.0 mi South 9.2 mph - N/A   Overcast
2:36 PM 73.0 °F 66.0 °F 79% 30.05 in 10.0 mi South 5.8 mph - N/A   Overcast
2:54 PM 72.0 °F 66.0 °F 81% 30.03 in 10.0 mi South 4.6 mph - N/A   Overcast
3:24 PM 73.9 °F 66.9 °F 79% 30.04 in 10.0 mi Calm Calm - 0.00 in   Overcast
3:37 PM 73.0 °F 66.9 °F 81% 30.04 in 10.0 mi Calm Calm - 0.00 in   Overcast
3:54 PM 73.0 °F 66.9 °F 81% 30.01 in 10.0 mi Variable 3.5 mph - 0.00 in   Overcast
4:54 PM 73.0 °F 66.9 °F 81% 30.00 in 10.0 mi NNW 3.5 mph - N/A   Overcast
5:41 PM 72.0 °F 66.9 °F 84% 30.01 in 10.0 mi SSW 5.8 mph - N/A   Overcast
5:54 PM 72.0 °F 68.0 °F 87% 29.99 in 7.0 mi South 3.5 mph - 0.00 in Rain Light Rain
6:54 PM 72.0 °F 68.0 °F 87% 29.97 in 10.0 mi SSE 3.5 mph - 0.00 in   Overcast
7:54 PM 72.0 °F 68.0 °F 87% 29.97 in 10.0 mi South 3.5 mph - N/A   Overcast
8:54 PM 72.0 °F 68.0 °F 87% 29.99 in 10.0 mi Calm Calm - N/A   Overcast
9:54 PM 71.1 °F 68.0 °F 90% 29.99 in 10.0 mi South 3.5 mph - N/A   Overcast
10:54 PM 70.0 °F 68.0 °F 93% 29.99 in 10.0 mi SSE 3.5 mph - N/A   Overcast
11:54 PM 70.0 °F 68.0 °F 93% 29.98 in 10.0 mi Calm Calm - N/A   Mostly Cloudy